Back to catalog

GEESAT 3-08

AliveScienceLEO
NORAD 61018·PAYLOAD·🇨🇳 China

Launched Sep 5, 2024 from Taiyuan Satellite Launch Center

Loading…

Next Passes (next 24 hours)

TLE

FreshSource: Space-Track

Epoch: Sep 14, 2026, 14:05 UTC

1 61018U 24159H   26257.58714116  .00001450  00000-0  19668-3 0  9995
2 61018  50.0064  28.3828 0027202  77.5896 282.8084 14.84485190110052

Track GEESAT 3-08 in real time with AllMySat

Download on the App Store